Regional Weather Roundup
Issued by NWS

Home | Current Version | Previous Version | Text Only | Print | Product List | Glossary Off
Versions: 1 2 3 4 5 6 7 8 9 10 11 12 13 14 15 16 17 18 19 20 21 22 23 24 25 26 27 28 29 30 31 32 33 34 35 36 37 38 39 40 41 42 43 44 45 46 47 48 49 50

700
ASUS43 KFSD 240310
RWRSD

WEATHER ROUNDUP FOR SOUTH DAKOTA
NATIONAL WEATHER SERVICE SIOUX FALLS SD
1000 PM CDT SUN APR 23 2017

NOTE: "FAIR" INDICATES FEW OR NO CLOUDS BELOW 12,000 FEET WITH NO
SIGNIFICANT WEATHER AND/OR OBSTRUCTIONS TO VISIBILITY.


SDZ001>005-009-010-012>017-240400-
NORTHWEST AND NORTH CENTRAL SOUTH DAKOTA

CITY           SKY/WX    TMP DP  RH WIND       PRES   REMARKS
BUFFALO          N/A     44  38  79 E24G30    29.60F
FAITH            N/A     38  37  97 NE24G36   29.66F
MOBRIDGE       CLOUDY    40  32  73 NE13G23   29.73S
$$

SDZ012>016-024>037-041>051-057-063-072>074-240400-
SOUTHWEST AND SOUTH CENTRAL SOUTH DAKOTA

CITY           SKY/WX    TMP DP  RH WIND       PRES   REMARKS
RAPID CTY ARPT CLOUDY    53  40  61 N10       29.62F
PIERRE         CLOUDY    56  45  66 N10       29.60S
CUSTER         CLOUDY    49  37  63 NE12      29.68F
ELLSWORTH AFB  CLOUDY    56  43  62 NE13      29.63S
PHILIP         CLOUDY    55  44  66 E10       29.62R
PINE RIDGE     CLOUDY    64  40  41 S15       29.61F
SPEARFISH      FAIR      52  43  71 E13       29.65F
WINNER         FAIR      63  38  39 S15       29.66S
$$

SDZ004>011-016>023-039-040-240400-
NORTHEAST SOUTH DAKOTA

CITY           SKY/WX    TMP DP  RH WIND       PRES   REMARKS
ABERDEEN       MOCLDY    49  39  68 NE18      29.71S
WATERTOWN      PTCLDY    57  33  40 SE7       29.73F
BROOKINGS      CLOUDY    60  32  34 S12       29.77S
SISSETON         N/A     50  41  71 E14       29.79S
$$

SDZ017-020-022-023-036>040-048>070-240400-
SOUTHEAST SOUTH DAKOTA

CITY           SKY/WX    TMP DP  RH WIND       PRES   REMARKS
SIOUX FALLS    MOCLDY    61  31  32 S15       29.79S
HURON          CLOUDY    64  30  27 S15       29.68S
CHAMBERLAIN    CLOUDY    64  33  31 SE13      29.66S
MITCHELL       CLOUDY    65  30  27 S16       29.72S
YANKTON        CLOUDY    61  28  29 S10       29.80R
$$

ABBREVIATIONS USED IN REMARKS
   TC - TEMPERATURE IN CELSIUS
  WCI - WIND CHILL INDEX
   HX - HEAT INDEX
  VSB - VISIBILITY





USA.gov is the U.S. government's official web portal to all federal, state and local government web resources and services.